KUIPER-00071

Last updated on Sat Aug 16 2025 00:02:05 GMT+0000 (Coordinated Universal Time)

1 64818U 25151C 25227.58336806 .00047249 00000+0 19396-2 0 9993 2 64818 51.8824 141.9535 0003434 243.0523 142.6446 15.23750661 4184
UTC large
Height (km)
Speed (km/s)
/
Latitude / Longitude
Inclination (degrees)
Orbital Period (minutes)
Azimuth
Elevation
Range (km)
Doppler Factor

Next 0 passes for location: London (51.5072 / 0.1276)

Sorry there are no passes over London.